Location: Orinda
(37.8771°N, 122.1797°W)
Time: 05:46:11
(UTC+00:00)

In-Cosmos 22 - Pass Details

Date: 21 October 2019
Orbit: 785 x 876 km, 81.2° (Epoch: 21 November)

Event Time Altitude Azimuth Distance (km) Brightness Sun altitude
Rises 12:48:37 0° 189° (S) 3,274 7.2 -19.3°
Reaches altitude 10° 12:50:58 10° 190° (S) 2,357 6.4 -18.8°
Maximum altitude 12:56:17 84° 279° (W) 816 4.0 -17.8°
Drops below altitude 10° 13:01:47 10° 8° (N) 2,425 6.7 -16.7°
Sets 13:04:13 0° 9° (N) 3,376 7.4 -16.2°
